Yaogan 39 01 zu 01 xing

operational
NORAD ID: 57727 Int'l Des: 2023-130 Owner: ZZB Country: CN Constellation: yaogan
LEOCIRCULAR

About Yaogan 39 01 zu 01 xing

Description loading...

Live Position

Loading 3D Globe...

Upcoming Passes

Altitude History

Altitude vs Time

uPlot chart will show altitude changes over time

Two-Line Element Set

1 57727U 23130A 26062.20804755 .00014322 00000-0 59419-3 0 9997
2 57727 35.0026 75.2125 0004177 263.7265 96.2974 15.23034482139549
Epoch: Mar 3, 2026 • Age: 25 hours

Current Status

Altitude 496.4 km
Velocity 7.62 km/s
Sub-Earth Point 17.22°N, 54.35°E
Launch Date Aug 31, 2023
Age 2.5 years
Type military

Technical Details

Classification Payload
Mass 300.00 kg
Dry Mass 300.00 kg
Total Mass 300.00 kg
Length 2.50 m
Diameter 2.50 m
Span 5.00 m
Shape Box + 2 Pan
Manufacturer DFHZ
Phase Status In Orbit
Owner/State ZZB/CN

Large Constellations

Loading constellations...